Location: Complexul Astronomic Baia Mare
(47.6577°N, 23.5639°E)
Time: 05:53:04
(UTC+03:00)

ISS - Pass Details

Date: 16 March 2017
Orbit: 399 x 409 km, 51.6° (Epoch: 30 March)

Event Time Altitude Azimuth Distance (km) Brightness Sun altitude
Exits shadow 03:35:57 15° 61° (ENE) 1,216 -0.6 -29.7°
Drops below altitude 10° 03:36:36 10° 65° (ENE) 1,461 -0.1 -29.6°
Sets 03:38:48 0° 72° (ENE) 2,342 1.1 -29.3°
